Tracking 27382 objects as of 4-Jun-2023
HD Live streaming from Space Station
objects crossing your sky now

SL-12 R/B(2)

Track SL-12 R/B(2) now!


NORAD ID: 17872
Int'l Code: 1976-092F
Perigee: 35,701.0 km
Apogee: 35,867.4 km
Inclination: 6.3 °
Period: 1,435.6 minutes
Semi major axis: 42155 km
RCS: 1.5849 m2 (large)
Launch date: September 11, 1976
Source: Commonwealth of Independent States (former USSR) (CIS)
Launch site: TYURATAM MISSILE AND SPACE COMPLEX (TTMTR)

Note: This is a ROCKET BODY
Your satellite tracking list
Your tracking list is empty




NASA's NSSDC Master Catalog

Two Line Element Set (TLE):
1 17872U 76092F   23155.63393946 -.00000228  00000-0  00000-0 0  9991
2 17872   6.3114 286.0313 0019728 166.4574 119.8843  1.00305803107805
Source of the keplerian elements: AFSPC